Regional Weather Roundup
Issued by NWS San Angelo, TX

Home | Current Version | Previous Version | Text Only | Print | Product List | Glossary On
Versions: 1 2 3 4 5 6 7 8 9 10 11 12 13 14 15 16 17 18 19 20 21 22 23 24 25 26 27 28 29 30 31 32 33 34 35 36 37 38 39 40 41 42 43 44 45 46 47 48 49 50
000
ASUS44 KSJT 260710
RWRSJT
WEST CENTRAL TEXAS REGIONAL WEATHER ROUNDUP
NATIONAL WEATHER SERVICE SAN ANGELO TX
100 AM CST MON JAN 26 2015

NOTE: "FAIR" INDICATES FEW OR NO CLOUDS BELOW 12,000 FEET WITH NO
SIGNIFICANT WEATHER AND/OR OBSTRUCTIONS TO VISIBILITY.

TXZ049-054-064>066-071>073-076>078-098-099-113-114-127-128-139-140-
154-155-168>170-260800
...LOCATIONS ACROSS WEST CENTRAL TEXAS...

CITY           SKY/WX    TMP DP  RH WIND       PRES   REMARKS
SAN ANGELO     CLEAR     40  33  76 SW5       30.27S WCI  37
ABILENE        CLEAR     42  30  62 SW6       30.25S WCI  38
DYESS AFB      CLEAR     45  32  58 SW6       30.24S
JUNCTION       CLEAR     36  31  82 W5        30.26F WCI  32
SWEETWATER     CLEAR     46  30  53 SW9       30.28F
BROWNWOOD      NOT AVBL
COLEMAN        SUNNY     44  33  63 W6        30.24S
SONORA         CLEAR     32  30  93 CALM      30.31F
OZONA          FAIR      32  30  93 CALM      30.30F
BRADY          CLEAR     43  30  61 NW7       30.23S WCI  39
$$

TEXAS PANHANDLE/OKLAHOMA PANHANDLE

CITY           SKY/WX    TMP DP  RH WIND       PRES   REMARKS
AMARILLO       CLEAR     37  31  78 W12       30.25S WCI  29
BORGER         CLEAR     41  32  70 W10       30.22S WCI  35
CANADIAN       CLEAR     35  32  88 CALM      30.20S
DALHART        CLEAR     37  29  72 W14       30.25R WCI  28
DUMAS          SUNNY     33  29  85 W14       30.24S WCI  24
GUYMON         NOT AVBL
HEREFORD       SUNNY     34  31  91 W9        30.28R WCI  26
PAMPA          SUNNY     36  32  85 W10       30.22S WCI  29
PERRYTON         N/A     34  31  88 W12       30.18S WCI  26
$$

SOUTHERN PANHANDLE/SOUTH PLAINS/ROLLING PLAINS

CITY           SKY/WX    TMP DP  RH WIND       PRES   REMARKS
LUBBOCK        PTCLDY    33  30  88 W8        30.27S WCI  26
SNYDER         CLEAR    N/A N/A N/A SW5       30.28S
CHILDRESS      CLEAR     42  33  70 NW7       30.22S WCI  38
SEMINOLE       SUNNY     39  28  65 W8        30.30S WCI  34
$$

PERMIAN BASIN

CITY           SKY/WX    TMP DP  RH WIND       PRES   REMARKS
MIDLAND        CLEAR     37  30  75 W6        30.28S WCI  32
ODESSA         CLEAR     41  28  60 NW7       30.28F WCI  36
WINK           CLEAR     34  27  75 N8        30.28F WCI  27
$$

FAR WEST/SOUTHWEST MOUNTAINS/TRANS PECOS

CITY           SKY/WX    TMP DP  RH WIND       PRES   REMARKS
ALPINE         CLOUDY    33  29  86 SW6       30.39R WCI  28
DRYDEN           N/A     45  34  65 W8        30.26F
EL PASO        CLOUDY    42  29  59 N8        30.27S WCI  37
FORT STOCKTON  MOCLDY    42  32  67 SW12      30.28F WCI  36
GUADALUPE PASS NOT AVBL
MARFA          CLOUDY    30  27  86 NW7       30.34R WCI  23
PECOS          MOSUNNY   35  32  86 CALM      30.30S
$$

DALLAS/FORT WORTH METROPLEX

CITY           SKY/WX    TMP DP  RH WIND       PRES   REMARKS
DFW AIRPORT    CLEAR     45  26  47 NW10      30.20S WCI  40
FTW MEACHAM    CLEAR     47  26  44 NW5       30.21R
DAL-EXECUTIVE  CLEAR     46  26  45 W7        30.19S
GRAND PRAIRIE  CLEAR     48  28  46 W5        30.22R
ADDISON        CLEAR     46  29  50 N5        30.21S
MESQUITE       SUNNY     44  28  53 NW7       30.20S
LANCASTER      SUNNY     39  27  62 W3        30.21S
$$

NORTH CENTRAL TEXAS

CITY           SKY/WX    TMP DP  RH WIND       PRES   REMARKS
SHRMAN/DENISON SUNNY     39  32  76 CALM      30.20S
GAINESVILLE    CLEAR     37  28  72 NW6       30.22S WCI  32
BRIDGEPORT     SUNNY     37  29  70 CALM      30.23F
DENTON         CLEAR     38  27  64 NW9       30.20S WCI  31
WAXAHACHIE     SUNNY     44  28  54 NW5       30.22R
GRANBURY       SUNNY     40  31  71 CALM      30.24R
$$

WESTERN NORTH TEXAS

CITY           SKY/WX    TMP DP  RH WIND       PRES   REMARKS
WICHITA FALLS  CLEAR     41  27  57 N6        30.21F WCI  37
VERNON         PTSUNNY   41  30  64 NW7       30.22F WCI  36
BRECKENRIDGE   SUNNY     44  32  63 SW6       30.22F
COMANCHE       CLEAR     51  31  47 W9        30.23S
$$

CENTRAL AND SOUTH CENTRAL TEXAS

CITY           SKY/WX    TMP DP  RH WIND       PRES   REMARKS
AUSTIN/BERGSTM CLEAR     48  33  56 W7        30.19S
WACO           CLEAR     38  30  73 W3        30.21S
HILLSBORO      SUNNY     45  28  52 NW5       30.22R
TEMPLE         CLEAR     43  28  56 NW6       30.20S WCI  39
KILLEEN-GRAY   CLEAR     56  28  34 NW12      30.21S
FORT HOOD      CLEAR     48  31  52 MISG      30.20S
GEORGETOWN     CLEAR     46  30  53 NW6       30.21R
LAGO VISTA     FAIR      58  27  30 N9G20     30.20S
SAN MARCOS     CLEAR     46  30  53 W8        30.21R
NEW BRAUNFELS  CLEAR     46  34  62 W8        30.21R
RANDOLPH AFB   CLEAR     44  34  67 NW8       30.22R WCI  40
SAN ANTONIO    CLEAR     47  34  60 W6        30.23R
STINSON        CLEAR     48  34  58 NW3       30.22R
PLEASANTON     NOT AVBL
LA GRANGE      CLEAR     52  34  49 SW5       30.17S
GIDDINGS       NOT AVBL
$$

EAST TEXAS

CITY           SKY/WX    TMP DP  RH WIND       PRES   REMARKS
PARIS          CLEAR     39  28  65 NW6       30.17S WCI  35
CLARKSVILLE    NOT AVBL
TYLER          CLEAR     47  28  47 NW8       30.17R
LONGVIEW       CLEAR     45  29  53 NW8       30.15R
PALESTINE      SUNNY     42  32  67 N3        30.20S
NACOGDOCHES    CLEAR     46  27  46 NW9       30.16R
$$

TEXAS HILL COUNTRY AND EDWARDS PLATEAU

CITY           SKY/WX    TMP DP  RH WIND       PRES   REMARKS
LLANO          SUNNY     43  34  70 CALM      30.26S
HORSESHOE BAY  FAIR      37  32  82 SW3       30.22R
KERRVILLE      CLEAR     38  33  81 CALM      30.26R
FREDERICKSBRG  CLEAR     40  32  73 SW5       30.23S WCI  36
ROCKSPRINGS    NOT AVBL
HONDO          CLEAR     43  33  68 NW7       30.26S WCI  39
UVALDE         PTSUNNY   48  34  56 N6        30.26S
DEL RIO        CLOUDY    46  38  73 CALM      30.27R
$$

SOUTHEAST TEXAS

CITY           SKY/WX    TMP DP  RH WIND       PRES   REMARKS
COLLEGE STN    CLEAR     51  28  41 NW10      30.19R
CALDWELL       SUNNY     52  28  40 NW8       30.22S
CROCKETT       SUNNY     48  32  53 CALM      30.20S
BRENHAM        CLEAR     53  31  42 NW8       30.18S
HUNTSVILLE     CLEAR     53  26  35 NW8       30.17S
CONROE         CLEAR     54  26  34 N12       30.16S
HOUSTON BUSH   PTCLDY    57  27  31 NW13      30.15R
HOUSTON HOBBY  PTCLDY    55  27  34 N9        30.13F
PERLAND        CLEAR     53  29  39 NW3       30.15F
WHARTON        SUNNY     47  38  71 W7        30.20R
$$

THE UPPER TEXAS COAST

CITY           SKY/WX    TMP DP  RH WIND       PRES   REMARKS
ORANGE         SUNNY     56  28  33 NW10G16   30.12R
PORT ARTHUR    CLEAR     56  29  35 NW15G23   30.10S
GALVESTON      CLEAR     55  35  47 NW13      30.15S
ANGLETON       CLEAR     47  35  63 W3        30.17R
BAY CITY       SUNNY     47  40  76 W5        30.19R
$$

TEXAS COASTAL BEND, RIO GRANDE PLAINS DEEP SOUTH TEXAS

CITY           SKY/WX    TMP DP  RH WIND       PRES   REMARKS
VICTORIA       CLEAR     49  40  71 W6        30.21S
BEEVILLE       FAIR      54  38  55 NW6       30.21S
ROCKPORT       MOCLDY    54  44  69 NW7       30.21R
PORT ARANSAS   PTSUNNY   51  47  85 NW3       30.21S
PORT LAVACA    SUNNY     51  41  69 NW6       30.21R
CORPUS CHRISTI MOCLDY    47  42  83 NW7       30.21S
KINGSVILLE NAS PTCLDY    47  41  80 NW8       30.22S
COTULLA        MOCLDY    50  42  74 W7        30.25R
LAREDO         NOT AVBL
BROWNSVILLE    PTCLDY    55  45  68 W5        30.22S
PORT ISABEL    PTCLDY    51  46  83 SW6       30.22R
HEBBRONVILLE   FAIR      52  39  62 NW7       30.25R
MCALLEN        MOCLDY    53  44  71 NW5       30.24S
WESLACO        MOCLDY    53  43  66 W3        30.23S
FALFURRIAS     PTSUNNY   51  39  62 W5        30.23R
EDINBURG       CLOUDY    53  41  63 NW5       30.24R
$$



USA.gov is the U.S. government's official web portal to all federal, state and local government web resources and services.